Location: STAR School
(35.3054°N, 111.2976°W)
Time: 09:34:47
(UTC-07:00)

Vanguard 1 Rocket - All Passes

Search period start: 20 May 2019 00:00
Search period end: 30 May 2019 00:00
Orbit: 652 x 4224 km, 34.3° (Epoch: 18 May)

Date Brightness Start Highest point End Pass type
(mag) Time Alt. Az. Time Alt. Az. Time Alt. Az.
20 May - 02:23:17 10° SW 02:28:27 55° SSE 02:37:24 10° E visible
20 May - 04:46:54 10° W 04:54:20 85° S 05:09:32 10° E visible
20 May - 07:11:25 10° W 07:22:19 66° SSW 07:43:23 10° SE daylight
20 May - 09:38:09 10° W 09:52:05 36° SSW 10:12:56 10° SSE daylight
20 May - 12:20:40 10° SW 12:22:41 10° SW 12:24:46 10° SW daylight
21 May - 01:13:35 10° SSW 01:17:48 31° SSE 01:23:51 10° E visible
21 May - 03:36:28 10° WSW 03:42:34 82° S 03:54:22 10° E visible
21 May - 06:00:35 10° W 06:09:30 76° SSW 06:27:44 10° ESE daylight
21 May - 08:25:56 10° W 08:38:20 46° SSW 08:59:37 10° SE daylight
21 May - 10:56:50 10° WSW 11:08:36 19° SW 11:23:14 10° S daylight
22 May - 00:04:55 10° S 00:07:23 14° SE 00:10:11 10° ESE visible
22 May - 02:26:12 10° WSW 02:31:19 66° SSE 02:40:10 10° E visible
22 May - 04:50:00 10° W 04:57:17 83° S 05:12:06 10° E daylight
22 May - 07:14:33 10° W 07:25:04 57° SSW 07:45:07 10° SE daylight
22 May - 09:42:00 10° W 09:54:41 28° SW 10:12:59 10° SSE daylight
23 May - 01:16:11 10° SW 01:20:33 41° SSE 01:26:53 10° E visible
23 May - 03:39:34 10° W 03:45:33 84° S 03:57:04 10° E visible
23 May - 06:03:41 10° W 06:12:22 68° SSW 06:29:55 10° ESE daylight
23 May - 08:29:20 10° W 08:41:02 38° SSW 09:00:26 10° SSE daylight
23 May - 11:03:56 10° WSW 11:11:18 13° SW 11:19:44 10° SSW daylight
24 May - 00:06:40 10° SSW 00:10:02 21° SSE 00:13:58 10° E visible
24 May - 02:29:14 10° WSW 02:34:16 75° SSE 02:42:58 10° E visible
24 May - 04:53:06 10° W 05:00:14 78° S 05:14:36 10° ESE daylight
24 May - 07:17:45 10° W 07:27:51 48° SSW 07:46:33 10° SE daylight
24 May - 09:46:30 10° WSW 09:57:23 21° SW 10:12:13 10° S daylight
25 May - 01:18:59 10° SW 01:23:24 53° SSE 01:29:49 10° E visible
25 May - 03:42:40 10° W 03:48:33 84° S 03:59:45 10° E visible
25 May - 06:06:48 10° W 06:15:13 59° SSW 06:31:53 10° SE daylight
25 May - 08:33:03 10° W 08:43:49 30° SSW 09:00:46 10° SSE daylight
26 May - 00:08:58 10° SW 00:12:48 30° SSE 00:17:19 10° E visible
26 May - 02:32:18 10° W 02:37:17 81° S 02:45:46 10° E visible
26 May - 04:56:12 10° W 05:03:10 70° SSW 05:17:00 10° ESE daylight
26 May - 07:21:08 10° W 07:30:41 39° SSW 07:47:38 10° SSE daylight
26 May - 09:52:24 10° WSW 10:00:14 15° SW 10:09:56 10° S daylight
26 May - 22:59:37 10° S 23:02:12 15° SSE 23:04:47 10° ESE night (unlit)
27 May - 01:21:54 10° WSW 01:26:20 65° SSE 01:32:44 10° E visible
27 May - 03:45:47 10° W 03:51:34 79° S 04:02:26 10° ESE visible
27 May - 06:10:01 10° W 06:18:07 49° SSW 06:33:36 10° SE daylight
27 May - 08:37:17 10° WSW 08:46:41 22° SSW 09:00:26 10° S daylight
28 May - 00:11:33 10° SW 00:15:40 40° SSE 00:20:29 10° E visible
28 May - 02:35:23 10° W 02:40:19 83° S 02:48:35 10° E visible
28 May - 04:59:20 10° W 05:06:06 60° SSW 05:19:14 10° ESE daylight
28 May - 07:24:45 10° W 07:33:36 30° SSW 07:48:18 10° SSE daylight
28 May - 23:01:24 10° SSW 23:05:03 22° SSE 23:08:34 10° E night (unlit)
29 May - 01:24:55 10° WSW 01:29:21 74° S 01:35:38 10° E visible
29 May - 03:48:54 10° W 03:54:34 72° S 04:05:02 10° ESE visible
29 May - 06:13:21 10° W 06:21:04 39° SSW 06:35:02 10° SE daylight
29 May - 08:42:36 10° WSW 08:49:40 15° SSW 08:58:51 10° S daylight
29 May - 21:52:07 10° S 21:54:13 12° SSE 21:56:08 10° SE night (unlit)
